Port Huron, MI

5:36 AM EDT on August 24, 2019 (GMT -0400)
Saint Clair County International

Weather History for KPHN - June, 2019

Change the Weather History Date:

Thursday, June 6, 2019

  Actual Average (KMTC) Record (KMTC)
Temperature  
Mean Temperature 63 °F -  
Max Temperature 73 °F 75 °F 95 °F (1999)
Min Temperature 51 °F 54 °F 40 °F (1948)
Degree Days  
Heating Degree Days 2    
Growing Degree Days 13 (Base 50)    
Moisture  
Dew Point 52 °F    
Average Humidity 72    
Maximum Humidity 94    
Minimum Humidity 50    
Precipitation  
Precipitation 0.00 in - - ()
Sea Level Pressure  
Sea Level Pressure 29.91 in    
Wind  
Wind Speed 5 mph (NNE)    
Max Wind Speed 9 mph    
Max Gust Speed -    
Visibility 8 miles    
Events      
Averages and records for this station are not official NWS values.
T = Trace of Precipitation, MM = Missing Value Source: NWS Daily Summary

Daily Weather History Graph

Daily Weather History Graph

Search for Another Location

Airport or City:

Astronomy

Jun. 06, 2019 Rise Set
Actual Time 5:52 AM EDT 9:05 PM EDT
Civil Twilight 5:17 AM EDT 9:40 PM EDT
Nautical Twilight 4:32 AM EDT 10:25 PM EDT
Astronomical Twilight 3:38 AM EDT 11:20 PM EDT
Moon 8:59 AM EDT (6/6) No Moon Set
Length of Visible Light 16h 23m
Length of Day
15h 13m
Waxing Crescent, 13% of the Moon is Illuminated
Jun 6
Waxing Crescent
Jun 10
First Quarter
Jun 17
Full
Jun 25
Last Quarter
Jul 2
New

Hourly Weather History & Observations

Time (EDT) Temp. Dew Point Humidity Pressure Visibility Wind Dir Wind Speed Gust Speed Precip Events Conditions
12:16 AM 59.0 °F 55.4 °F 88% 29.82 in 1.8 mi NNW 5.8 mph - N/A   Overcast
12:35 AM 57.2 °F 55.4 °F 94% 29.82 in 1.5 mi NNW 5.8 mph - N/A   Overcast
12:55 AM 57.2 °F 55.4 °F 94% 29.82 in 1.5 mi NW 4.6 mph - N/A   Overcast
12:56 AM 57.2 °F 55.4 °F 94% 29.82 in 1.5 mi NNW 4.6 mph - N/A   Overcast
1:19 AM 57.2 °F 55.4 °F 94% 29.81 in 3.0 mi North 5.8 mph - N/A   Overcast
1:37 AM 57.2 °F 55.4 °F 94% 29.82 in 2.5 mi North 4.6 mph - N/A   Overcast
1:55 AM 57.2 °F 55.4 °F 94% 29.82 in 1.5 mi NNW 5.8 mph - N/A   Overcast
2:15 AM 57.2 °F 53.6 °F 88% 29.81 in 2.5 mi NNW 6.9 mph - N/A   Overcast
2:16 AM 57.2 °F 53.6 °F 88% 29.81 in 2.5 mi NNW 6.9 mph - N/A   Overcast
2:35 AM 57.2 °F 53.6 °F 88% 29.80 in 3.0 mi NNW 6.9 mph - N/A   Overcast
2:57 AM 57.2 °F 53.6 °F 88% 29.81 in 2.5 mi NNW 5.8 mph - N/A   Overcast
3:16 AM 57.2 °F 53.6 °F 88% 29.81 in 3.0 mi North 5.8 mph - N/A   Overcast
3:35 AM 57.2 °F 53.6 °F 88% 29.83 in 4.0 mi NNW 4.6 mph - N/A   Overcast
3:36 AM 57.2 °F 53.6 °F 88% 29.83 in 4.0 mi NNW 5.8 mph - N/A   Overcast
3:56 AM 57.2 °F 53.6 °F 88% 29.84 in 5.0 mi NW 4.6 mph - N/A   Overcast
4:37 AM 57.2 °F 53.6 °F 88% 29.85 in 5.0 mi North 4.6 mph - N/A   Overcast
4:55 AM 57.2 °F 53.6 °F 88% 29.86 in 5.0 mi ENE 5.8 mph - N/A   Overcast
4:56 AM 57.2 °F 53.6 °F 88% 29.86 in 5.0 mi ENE 5.8 mph - N/A   Overcast
5:15 AM 53.6 °F 51.8 °F 94% 29.87 in 4.0 mi NE 8.1 mph - N/A   Overcast
5:35 AM 53.6 °F 50.0 °F 88% 29.88 in 10.0 mi NNE 6.9 mph - N/A   Overcast
5:58 AM 53.6 °F 50.0 °F 88% 29.88 in 10.0 mi North 4.6 mph - N/A   Overcast
6:16 AM 55.4 °F 50.0 °F 82% 29.89 in 10.0 mi NNE 8.1 mph - N/A   Overcast
6:35 AM 55.4 °F 50.0 °F 82% 29.89 in 10.0 mi NNE 5.8 mph - N/A   Overcast
6:55 AM 55.4 °F 50.0 °F 82% 29.89 in 10.0 mi North 5.8 mph - N/A   Overcast
7:19 AM 55.4 °F 50.0 °F 82% 29.90 in 10.0 mi North 4.6 mph - N/A   Overcast
7:37 AM 55.4 °F 50.0 °F 82% 29.90 in 10.0 mi North 5.8 mph - N/A   Overcast
7:55 AM 57.2 °F 50.0 °F 77% 29.90 in 10.0 mi North 5.8 mph - N/A   Overcast
8:15 AM 57.2 °F 50.0 °F 77% 29.90 in 10.0 mi NNE 9.2 mph - N/A   Overcast
8:16 AM 57.2 °F 50.0 °F 77% 29.90 in 10.0 mi North 8.1 mph - N/A   Overcast
8:35 AM 57.2 °F 50.0 °F 77% 29.91 in 10.0 mi NNE 6.9 mph - N/A   Overcast
8:40 AM 57.2 °F 50.0 °F 77% 29.91 in 10.0 mi North 6.9 mph - N/A   Overcast
8:58 AM 57.2 °F 50.0 °F 77% 29.91 in 10.0 mi North 4.6 mph - N/A   Overcast
9:16 AM 57.2 °F 50.0 °F 77% 29.91 in 10.0 mi North 5.8 mph - N/A   Overcast
9:35 AM 59.0 °F 50.0 °F 72% 29.93 in 10.0 mi North 3.5 mph - N/A   Overcast
9:55 AM 59.0 °F 50.0 °F 72% 29.93 in 10.0 mi North 6.9 mph - N/A   Overcast
9:56 AM 59.0 °F 50.0 °F 72% 29.93 in 10.0 mi North 6.9 mph - N/A   Overcast
10:19 AM 60.8 °F 50.0 °F 68% 29.92 in 10.0 mi NNE 6.9 mph - N/A   Overcast
10:37 AM 60.8 °F 50.0 °F 68% 29.93 in 10.0 mi NNE 4.6 mph - N/A   Overcast
10:55 AM 62.6 °F 51.8 °F 68% 29.93 in 10.0 mi NNE 3.5 mph - N/A   Overcast
10:56 AM 62.6 °F 51.8 °F 68% 29.93 in 10.0 mi North 4.6 mph - N/A   Overcast
11:15 AM 64.4 °F 51.8 °F 64% 29.93 in 10.0 mi WNW 4.6 mph - N/A   Overcast
11:16 AM 64.4 °F 51.8 °F 64% 29.93 in 10.0 mi West 4.6 mph - N/A   Overcast
11:35 AM 64.4 °F 51.8 °F 64% 29.93 in 10.0 mi Calm Calm - N/A   Overcast
11:58 AM 66.2 °F 53.6 °F 64% 29.94 in 10.0 mi NNW 3.5 mph - N/A   Scattered Clouds
12:16 PM 66.2 °F 53.6 °F 64% 29.94 in 10.0 mi Calm Calm - N/A   Mostly Cloudy
12:35 PM 68.0 °F 55.4 °F 64% 29.94 in 10.0 mi Calm Calm - N/A   Overcast
12:55 PM 69.8 °F 53.6 °F 56% 29.93 in 10.0 mi East 3.5 mph - N/A   Mostly Cloudy
12:56 PM 69.8 °F 53.6 °F 56% 29.93 in 10.0 mi Calm Calm - N/A   Mostly Cloudy
1:19 PM 69.8 °F 53.6 °F 56% 29.93 in 10.0 mi Calm Calm - N/A   Scattered Clouds
1:37 PM 69.8 °F 53.6 °F 56% 29.93 in 10.0 mi Calm Calm - N/A   Mostly Cloudy
1:55 PM 71.6 °F 55.4 °F 57% 29.92 in 10.0 mi NNW 4.6 mph - N/A   Scattered Clouds
2:15 PM 71.6 °F 55.4 °F 57% 29.93 in 10.0 mi ENE 4.6 mph - N/A   Clear
2:16 PM 71.6 °F 55.4 °F 57% 29.93 in 10.0 mi ENE 4.6 mph - N/A   Clear
2:35 PM 71.6 °F 55.4 °F 57% 29.93 in 10.0 mi NE 4.6 mph - N/A   Clear
2:40 PM 71.6 °F 55.4 °F 57% 29.93 in 10.0 mi NE 4.6 mph - N/A   Clear
2:58 PM 73.4 °F 55.4 °F 53% 29.92 in 7.0 mi NE 4.6 mph - N/A   Clear
3:16 PM 73.4 °F 55.4 °F 53% 29.93 in 10.0 mi East 4.6 mph - N/A   Clear
3:35 PM 73.4 °F 53.6 °F 50% 29.93 in 10.0 mi NNE 4.6 mph - N/A   Clear
3:36 PM 73.4 °F 53.6 °F 50% 29.92 in 10.0 mi North 5.8 mph - N/A   Clear
3:55 PM 73.4 °F 53.6 °F 50% 29.92 in 10.0 mi NE 8.1 mph - N/A   Clear
4:19 PM 73.4 °F 53.6 °F 50% 29.92 in 10.0 mi NNE 3.5 mph - N/A   Clear
4:37 PM 73.4 °F 53.6 °F 50% 29.92 in 10.0 mi ENE 6.9 mph - N/A   Clear
4:55 PM 73.4 °F 53.6 °F 50% 29.92 in 10.0 mi NNE 5.8 mph - N/A   Clear
4:56 PM 71.6 °F 53.6 °F 53% 29.92 in 10.0 mi NE 5.8 mph - N/A   Clear
5:15 PM 71.6 °F 53.6 °F 53% 29.92 in 10.0 mi NE 5.8 mph - N/A   Clear
5:35 PM 71.6 °F 53.6 °F 53% 29.92 in 10.0 mi NNE 4.6 mph - N/A   Clear
5:58 PM 71.6 °F 53.6 °F 53% 29.92 in 10.0 mi NE 6.9 mph - N/A   Clear
6:15 PM 71.6 °F 53.6 °F 53% 29.92 in 10.0 mi NE 6.9 mph - N/A   Clear
6:35 PM 69.8 °F 53.6 °F 56% 29.92 in 10.0 mi ENE 6.9 mph - N/A   Clear
6:36 PM 69.8 °F 53.6 °F 56% 29.92 in 10.0 mi ENE 6.9 mph - N/A   Clear
6:55 PM 69.8 °F 55.4 °F 60% 29.92 in 10.0 mi NE 5.8 mph - N/A   Clear
6:56 PM 69.8 °F 55.4 °F 60% 29.92 in 10.0 mi NE 6.9 mph - N/A   Clear
7:19 PM 68.0 °F 53.6 °F 60% 29.92 in 10.0 mi NNE 5.8 mph - N/A   Clear
7:37 PM 68.0 °F 53.6 °F 60% 29.92 in 10.0 mi NNE 4.6 mph - N/A   Clear
7:55 PM 66.2 °F 51.8 °F 60% 29.93 in 10.0 mi NNE 4.6 mph - N/A   Clear
7:56 PM 66.2 °F 51.8 °F 60% 29.93 in 10.0 mi NNE 3.5 mph - N/A   Clear
8:15 PM 64.4 °F 51.8 °F 64% 29.93 in 10.0 mi NE 4.6 mph - N/A   Clear
8:35 PM 62.6 °F 51.8 °F 68% 29.94 in 10.0 mi NE 3.5 mph - N/A   Clear
8:58 PM 60.8 °F 50.0 °F 68% 29.94 in 10.0 mi ENE 3.5 mph - N/A   Clear
9:16 PM 59.0 °F 50.0 °F 72% 29.95 in 10.0 mi ENE 3.5 mph - N/A   Clear
9:35 PM 59.0 °F 50.0 °F 72% 29.95 in 10.0 mi ENE 3.5 mph - N/A   Clear
9:55 PM 57.2 °F 50.0 °F 77% 29.96 in 10.0 mi NE 3.5 mph - N/A   Clear
10:19 PM 55.4 °F 50.0 °F 82% 29.96 in 10.0 mi Calm Calm - N/A   Clear
10:37 PM 55.4 °F 50.0 °F 82% 29.96 in 10.0 mi Calm Calm - N/A   Clear
10:55 PM 55.4 °F 50.0 °F 82% 29.96 in 10.0 mi Calm Calm - N/A   Clear
11:15 PM 53.6 °F 48.2 °F 82% 29.96 in 10.0 mi Calm Calm - N/A   Clear
11:16 PM 53.6 °F 50.0 °F 88% 29.96 in 10.0 mi Calm Calm - N/A   Clear
11:35 PM 53.6 °F 48.2 °F 82% 29.96 in 10.0 mi Calm Calm - N/A   Clear
11:40 PM 53.6 °F 48.2 °F 82% 29.96 in 10.0 mi Calm Calm - N/A   Clear
11:58 PM 51.8 °F 48.2 °F 88% 29.96 in 10.0 mi Calm Calm - N/A   Clear